Location: Kouchibouguac National Park
(46.8081°N, 64.9088°W)
Time: 00:30:48
(UTC-03:00)

Amateur Radio Satellites - All Passes

Search period start: 25 June 2017 00:00
Search period end: 26 June 2017 00:00
Location: Kouchibouguac National Park, 46.8081°N, 64.9088°W

Satellite Date Start Highest point End Downlink Frequencies (MHz)
Time Altitude Azimuth
BEESAT 3 25 Jun 00:13:32 00:15:54 15° 328° (NNW) 00:18:18 437.485
M-CUBED/EXP-1 PRIME 25 Jun 00:18:46 00:21:33 21° 299° (WNW) 00:24:30 437.505
TIGRISAT 25 Jun 00:21:21 00:25:36 35° 293° (WNW) 00:29:46 435.000
NO-84 25 Jun 00:22:25 00:26:26 51° 334° (NNW) 00:30:41 435.350 FM
50 SAT 25 Jun 00:24:41 00:27:06 19° 66° (ENE) 00:29:33 437.505
POLYITAN 1 25 Jun 00:26:26 00:29:52 23° 93° (E) 00:33:16 437.675
LO-87 25 Jun 00:29:48 00:32:25 19° 267° (W) 00:35:03 145.935 - 145.965
PRISM 25 Jun 00:30:51 00:34:07 23° 295° (WNW) 00:37:23 437.425
QB50P2 25 Jun 00:36:55 00:40:46 31° 96° (E) 00:44:35 145.880/145.840
O/OREOS (USA 219) 25 Jun 00:41:13 00:43:14 13° 317° (NW) 00:45:14 437.305
ESTCUBE 1 25 Jun 00:48:11 00:52:03 28° 265° (W) 00:55:56 437.505/2401.250
SO-50 25 Jun 00:49:34 00:53:19 26° 245° (WSW) 00:57:05 436.795
VELOX 1 25 Jun 00:52:48 00:57:11 89° 257° (WSW) 01:01:35 145.980
BUGSAT 1 25 Jun 00:56:41 00:58:29 12° 89° (E) 01:00:16 437.445
RS-15 25 Jun 00:59:09 01:10:36 41° 335° (NNW) 01:22:03 29.354- 29.394
EO-79 25 Jun 01:01:32 01:05:44 52° 100° (E) 01:09:54 145.935-145.965
UNISAT 6 25 Jun 01:04:26 01:07:03 15° 301° (WNW) 01:09:39 437.425
FO-29 25 Jun 01:07:00 01:13:09 27° 304° (WNW) 01:19:23 435.910
BEESAT 2 25 Jun 01:11:07 01:12:59 13° 332° (NNW) 01:14:51 435.950
DX 1 25 Jun 01:15:22 01:19:35 56° 72° (ENE) 01:23:51 434.975-435.025
DUCHIFAT 1 25 Jun 01:16:36 01:20:50 61° 101° (E) 01:25:02 145.980
YUBILEINY 25 Jun 01:17:19 01:23:38 21° 303° (WNW) 01:30:01 435.215
SPROUT 25 Jun 01:20:58 01:25:02 42° 262° (W) 01:29:08 437.525
NANOSAT C BR1 25 Jun 01:24:37 01:28:55 83° 105° (ESE) 01:33:10 145.865
AIST 2D 25 Jun 01:27:45 01:30:51 30° 290° (WNW) 01:33:56 435.315
UKube-1 25 Jun 01:34:16 01:38:30 60° 72° (ENE) 01:42:46 .
Oscar 19 25 Jun 01:45:31 01:48:54 18° 90° (E) 01:52:18 437.125/150
50 SAT 25 Jun 01:56:45 01:59:44 29° 263° (W) 02:02:44 437.505
NO-84 25 Jun 02:01:04 02:04:46 28° 355° (N) 02:08:34 435.350 FM
POLYITAN 1 25 Jun 02:01:47 02:05:46 38° 291° (WNW) 02:09:43 437.675
QB50P2 25 Jun 02:12:49 02:16:28 28° 294° (WNW) 02:20:06 145.880/145.840
MOZHAYETS 4 25 Jun 02:21:45 02:24:18 15° 59° (ENE) 02:26:51
BUGSAT 1 25 Jun 02:30:04 02:34:20 71° 286° (WNW) 02:38:32 437.445
Gurwin Techsat 1B 25 Jun 02:31:25 02:36:02 29° 94° (E) 02:40:37 435.225
ITUPSAT 1 25 Jun 02:31:28 02:35:31 28° 64° (ENE) 02:39:35 437.325
EO-79 25 Jun 02:38:11 02:41:07 18° 298° (WNW) 02:44:02 145.935-145.965
BEESAT 25 Jun 02:41:42 02:46:00 34° 66° (ENE) 02:50:19 436.000
DX 1 25 Jun 02:53:28 02:56:07 16° 269° (W) 02:58:49 434.975-435.025
DUCHIFAT 1 25 Jun 02:53:28 02:56:02 16° 299° (WNW) 02:58:36 145.980
NANOSAT C BR1 25 Jun 03:02:14 03:03:59 12° 302° (WNW) 03:05:44 145.865
UKube-1 25 Jun 03:12:30 03:14:56 15° 270° (W) 03:17:22 .
RS-15 25 Jun 03:16:23 03:27:21 34° 9° (N) 03:38:00 29.354- 29.394
Oscar 19 25 Jun 03:23:38 03:28:43 67° 289° (WNW) 03:33:47 437.125/150
NO-84 25 Jun 03:39:14 03:43:15 35° 16° (NNE) 03:47:18 435.350 FM
MOZHAYETS 4 25 Jun 03:56:12 04:00:51 79° 256° (WSW) 04:05:31
ITAMSAT 1 25 Jun 03:59:47 04:04:05 25° 93° (E) 04:08:20 435.822/435.867
KKS-1 25 Jun 04:00:21 04:03:27 19° 61° (ENE) 04:06:34 437.445
ITUPSAT 1 25 Jun 04:08:39 04:13:10 40° 262° (W) 04:17:43 437.325
Gurwin Techsat 1B 25 Jun 04:11:06 04:16:07 43° 293° (WNW) 04:21:07 435.225
BEESAT 25 Jun 04:19:31 04:23:46 31° 264° (W) 04:28:03 436.000
AO-7 25 Jun 04:23:25 04:31:19 42° 99° (E) 04:39:07 .
STARS 25 Jun 04:32:22 04:35:18 18° 61° (ENE) 04:38:14 437.465
CUBESAT XI-V 25 Jun 04:35:17 04:39:48 53° 71° (ENE) 04:44:19 437.345
AO-85 25 Jun 04:44:08 04:47:27 24° 40° (NE) 04:50:53 145.980
Oscar 19 25 Jun 05:05:35 05:07:05 11° 307° (NW) 05:08:36 437.125/150
BEESAT 3 25 Jun 05:10:43 05:14:02 24° 39° (NE) 05:17:19 437.485
NO-84 25 Jun 05:16:50 05:21:15 82° 214° (SSW) 05:25:33 435.350 FM
RS-15 25 Jun 05:30:53 05:43:02 60° 41° (NE) 05:54:36 29.354- 29.394
KKS-1 25 Jun 05:35:17 05:39:37 54° 259° (W) 05:44:00 437.445
DOVE 4 25 Jun 05:35:26 05:37:18 12° 87° (E) 05:39:10 437.250
ITAMSAT 1 25 Jun 05:38:44 05:43:47 49° 292° (WNW) 05:48:48 435.822/435.867
STARS 25 Jun 06:06:54 06:11:13 57° 259° (W) 06:15:35 437.465
BEESAT 2 25 Jun 06:07:55 06:11:33 30° 42° (NE) 06:15:10 435.950
CUBESAT XI-V 25 Jun 06:14:14 06:17:29 19° 269° (W) 06:20:45 437.345
AO-7 25 Jun 06:16:12 06:24:13 52° 299° (WNW) 06:32:14 .
XW-2C 25 Jun 06:22:59 06:24:21 12° 89° (E) 06:25:44 145.795 - 145.815
AO-85 25 Jun 06:24:04 06:28:03 51° 238° (WSW) 06:32:16 145.980
STRAND 1 25 Jun 06:31:41 06:35:28 21° 60° (ENE) 06:39:14 437.568
CUTE-I 25 Jun 06:38:00 06:41:52 20° 91° (E) 06:45:43 437.470
KAITUO 1B 25 Jun 06:38:20 06:40:13 13° 90° (E) 06:42:05 145.475/437.950
BEESAT 3 25 Jun 06:47:57 06:51:51 49° 239° (WSW) 06:55:41 437.485
NO-84 25 Jun 06:55:35 06:58:16 16° 234° (SW) 07:00:52 435.350 FM
HO-68 25 Jun 07:08:35 07:12:03 14° 85° (E) 07:15:31 435.675
DOVE 4 25 Jun 07:10:42 07:15:34 88° 107° (ESE) 07:20:41 437.250
NUDT-PHONESAT 25 Jun 07:13:48 07:17:11 32° 97° (E) 07:20:31 437.300
O/OREOS (USA 219) 25 Jun 07:26:30 07:30:46 41° 58° (ENE) 07:35:00 437.305
XW-2F 25 Jun 07:27:11 07:30:55 60° 101° (E) 07:34:36 145.980 - 146.000
YUBILEINY 25 Jun 07:28:15 07:32:47 15° 50° (NE) 07:37:17 435.215
XW-2D 25 Jun 07:30:42 07:34:30 73° 103° (ESE) 07:38:14 145.860 - 145.880
LilacSat-2 25 Jun 07:38:13 07:42:03 89° 268° (W) 07:45:49 437.200
XW-2B 25 Jun 07:39:41 07:43:29 89° 106° (ESE) 07:47:15 145.730 - 145.750
RS-15 25 Jun 07:43:57 07:55:31 54° 247° (WSW) 08:06:32 29.354- 29.394
BEESAT 2 25 Jun 07:45:37 07:49:21 36° 242° (WSW) 07:53:03 435.950
XW-2C 25 Jun 07:55:13 07:58:57 59° 286° (WNW) 08:02:38 145.795 - 145.815
FO-29 25 Jun 07:56:38 07:58:53 12° 43° (NE) 08:01:12 435.910
SEEDS 25 Jun 08:00:47 08:03:26 16° 91° (E) 08:06:03 437.485
STRAND 1 25 Jun 08:09:05 08:14:11 63° 258° (WSW) 08:19:20 437.568
AO-7 25 Jun 08:10:41 08:15:08 16° 322° (NW) 08:19:35 .
KAITUO 1B 25 Jun 08:10:55 08:14:31 49° 288° (WNW) 08:18:05 145.475/437.950
XW-2A 25 Jun 08:13:12 08:15:53 21° 94° (E) 08:18:32 145.665 - 145.685
CUTE 1.7 + AOD 2 25 Jun 08:16:13 08:20:07 35° 97° (E) 08:23:58 437.475
CUTE-I 25 Jun 08:17:02 08:22:22 64° 289° (WNW) 08:27:40 437.470
CUBEBUG 2 25 Jun 08:21:44 08:25:35 24° 92° (E) 08:29:22 437.445
NUDT-PHONESAT 25 Jun 08:48:07 08:50:54 20° 294° (WNW) 08:53:39 437.300
DOVE 4 25 Jun 08:50:04 08:52:39 14° 301° (WNW) 08:55:16 437.250
AAUSAT CUBESAT 2 25 Jun 08:52:46 08:56:17 27° 95° (E) 08:59:47 437.432
ZACube-1 25 Jun 08:53:21 08:56:19 17° 90° (E) 08:59:14 437.345
UNISAT 6 25 Jun 08:53:39 08:55:54 14° 57° (ENE) 08:58:10 437.425
HO-68 25 Jun 08:53:49 09:01:02 73° 105° (ESE) 09:08:11 435.675
UWE-3 25 Jun 08:56:24 09:00:33 32° 95° (E) 09:04:34 435.000/436.395/437.385
XW-2F 25 Jun 09:02:52 09:04:34 13° 298° (WNW) 09:06:16 145.980 - 146.000
O/OREOS (USA 219) 25 Jun 09:06:23 09:09:55 23° 257° (WSW) 09:13:27 437.305
XW-2D 25 Jun 09:07:00 09:08:07 11° 300° (WNW) 09:09:14 145.860 - 145.880
YUBILEINY 25 Jun 09:23:09 09:31:55 59° 75° (ENE) 09:40:33 435.215
M-CUBED/EXP-1 PRIME 25 Jun 09:32:49 09:36:06 75° 69° (ENE) 09:39:21 437.505
Tancredo 1 25 Jun 09:33:58 09:36:56 53° 148° (SSE) 09:39:55 437.200
SEEDS 25 Jun 09:35:22 09:39:25 50° 288° (WNW) 09:43:26 437.485
FO-29 25 Jun 09:36:13 09:42:09 50° 66° (ENE) 09:48:52 435.910
XW-2A 25 Jun 09:45:44 09:48:37 25° 292° (WNW) 09:51:28 145.665 - 145.685
TIGRISAT 25 Jun 09:45:48 09:50:00 35° 68° (ENE) 09:54:16 435.000
PRISM 25 Jun 09:47:01 09:50:45 37° 69° (ENE) 09:54:30 437.425
ISS 25 Jun 09:47:11 09:50:16 39° 144° (SE) 09:53:22 437.550
CUTE 1.7 + AOD 2 25 Jun 09:52:23 09:55:47 24° 294° (WNW) 09:59:08 437.475
AO-73 25 Jun 09:53:42 09:58:09 62° 100° (E) 10:02:28 145.935
CUBEBUG 2 25 Jun 09:57:53 10:02:21 42° 291° (WNW) 10:06:43 437.445
CUTE-I 25 Jun 09:59:40 10:01:23 12° 308° (NW) 10:03:07 437.470
RS-15 25 Jun 10:02:05 10:04:44 11° 271° (W) 10:07:22 29.354- 29.394
Oscar 11 25 Jun 10:21:30 10:25:51 88° 273° (W) 10:30:08 .
DELFI C3 25 Jun 10:23:46 10:27:08 26° 95° (E) 10:30:28 145.870
UNISAT 6 25 Jun 10:27:16 10:31:53 88° 250° (WSW) 10:36:37 437.425
AAUSAT CUBESAT 2 25 Jun 10:28:08 10:31:44 29° 292° (WNW) 10:35:18 437.432
ZACube-1 25 Jun 10:28:33 10:32:57 54° 288° (WNW) 10:37:14 437.345
UWE-3 25 Jun 10:32:52 10:36:56 31° 293° (WNW) 10:40:55 435.000/436.395/437.385
AIST 2D 25 Jun 10:33:11 10:34:45 13° 63° (ENE) 10:36:20 435.315
HO-68 25 Jun 10:42:21 10:48:10 28° 305° (NW) 10:53:58 435.675
NANOSAT C BR1 25 Jun 10:46:59 10:48:10 11° 57° (ENE) 10:49:22 145.865
Tancredo 1 25 Jun 11:09:43 11:12:37 39° 347° (NNW) 11:15:31 437.200
YUBILEINY 25 Jun 11:20:34 11:28:16 35° 277° (W) 11:35:54 435.215
POLYITAN 1 25 Jun 11:21:34 11:25:06 26° 65° (ENE) 11:28:39 437.675
FO-29 25 Jun 11:22:03 11:27:29 33° 269° (W) 11:33:36 435.910
TIGRISAT 25 Jun 11:22:44 11:26:43 29° 266° (W) 11:30:47 435.000
PRISM 25 Jun 11:23:04 11:26:09 21° 266° (W) 11:29:16 437.425
ISS 25 Jun 11:23:31 11:26:44 49° 344° (NNW) 11:29:56 437.550
EO-88 25 Jun 11:28:42 11:32:22 80° 284° (WNW) 11:36:00 145.990 - 145.960
AO-73 25 Jun 11:31:04 11:33:54 17° 299° (WNW) 11:36:41 145.935
QB50P2 25 Jun 11:31:58 11:35:50 34° 68° (ENE) 11:39:43 145.880/145.840
BUGSAT 1 25 Jun 11:49:14 11:51:21 14° 59° (ENE) 11:53:29 437.445
LO-87 25 Jun 11:52:55 11:56:03 26° 95° (E) 11:59:09 145.935 - 145.965
EO-79 25 Jun 11:56:16 12:00:25 55° 72° (ENE) 12:04:37 145.935-145.965
DELFI C3 25 Jun 11:58:30 12:01:52 28° 292° (WNW) 12:05:15 145.870
Oscar 11 25 Jun 11:59:56 12:01:16 11° 302° (WNW) 12:02:36 .
AIST 2D 25 Jun 12:04:02 12:07:32 54° 260° (W) 12:11:02 435.315
UNISAT 6 25 Jun 12:08:17 12:09:19 11° 274° (W) 12:10:22 437.425
DUCHIFAT 1 25 Jun 12:10:39 12:14:50 64° 74° (ENE) 12:19:04 145.980
NANOSAT C BR1 25 Jun 12:18:56 12:23:10 87° 82° (E) 12:27:28 145.865
Gurwin Techsat 1B 25 Jun 12:20:15 12:21:28 11° 51° (NE) 12:22:41 435.225
PCSat 25 Jun 12:26:49 12:31:41 35° 112° (ESE) 12:36:33 145.827
ESTCUBE 1 25 Jun 12:36:47 12:41:08 48° 99° (E) 12:45:28 437.505/2401.250
VELOX 1 25 Jun 12:41:13 12:43:34 14° 90° (E) 12:45:55 145.980
Tancredo 1 25 Jun 12:45:50 12:48:39 33° 7° (N) 12:51:28 437.200
POLYITAN 1 25 Jun 12:56:50 13:00:44 35° 263° (W) 13:04:42 437.675
ISS 25 Jun 13:00:35 13:03:38 34° 3° (N) 13:06:42 437.550
SPROUT 25 Jun 13:03:45 13:07:22 26° 94° (E) 13:10:58 437.525
Oscar 19 25 Jun 13:04:42 13:09:20 35° 66° (ENE) 13:13:58 437.125/150
QB50P2 25 Jun 13:08:08 13:11:41 25° 266° (W) 13:15:15 145.880/145.840
50 SAT 25 Jun 13:17:13 13:18:43 12° 91° (E) 13:20:14 437.505
BUGSAT 1 25 Jun 13:22:01 13:26:09 71° 258° (WSW) 13:30:22 437.445
LO-87 25 Jun 13:26:25 13:29:24 24° 293° (WNW) 13:32:22 145.935 - 145.965
EO-79 25 Jun 13:33:56 13:36:31 16° 270° (W) 13:39:08 145.935-145.965
AO-7 25 Jun 13:36:19 13:42:04 21° 44° (NE) 13:47:50 .
DUCHIFAT 1 25 Jun 13:48:49 13:50:56 14° 271° (W) 13:53:05 145.980
Gurwin Techsat 1B 25 Jun 13:55:09 14:00:21 61° 71° (ENE) 14:05:37 435.225
PCSat 25 Jun 14:09:48 14:14:58 43° 311° (NW) 14:20:11 145.827
ESTCUBE 1 25 Jun 14:14:18 14:17:37 21° 297° (WNW) 14:20:56 437.505/2401.250
VELOX 1 25 Jun 14:16:03 14:20:28 66° 287° (WNW) 14:24:51 145.980
Tancredo 1 25 Jun 14:21:26 14:24:29 89° 5° (N) 14:27:32 437.200
DX 1 25 Jun 14:36:24 14:40:46 70° 102° (ESE) 14:45:08 434.975-435.025
ISS 25 Jun 14:37:10 14:40:28 70° 23° (NNE) 14:43:46 437.550
SPROUT 25 Jun 14:39:25 14:43:20 34° 292° (WNW) 14:47:12 437.525
Oscar 19 25 Jun 14:43:58 14:48:38 34° 264° (W) 14:53:20 437.125/150
50 SAT 25 Jun 14:48:29 14:51:46 44° 288° (WNW) 14:55:02 437.505
UKube-1 25 Jun 14:54:02 14:58:22 74° 103° (ESE) 15:02:41 .
SO-50 25 Jun 15:05:30 15:09:53 48° 121° (ESE) 15:14:16 436.795
ITAMSAT 1 25 Jun 15:20:16 15:25:17 51° 69° (ENE) 15:30:21 435.822/435.867
AO-7 25 Jun 15:25:14 15:33:30 73° 66° (ENE) 15:41:50 .
Gurwin Techsat 1B 25 Jun 15:36:49 15:40:44 20° 269° (W) 15:44:39 435.225
MOZHAYETS 4 25 Jun 15:49:03 15:52:24 20° 91° (E) 15:55:45
PCSat 25 Jun 15:57:13 15:59:51 13° 335° (NNW) 16:02:29 145.827
Tancredo 1 25 Jun 15:57:51 15:59:42 15° 224° (SW) 16:01:32 437.200
ITUPSAT 1 25 Jun 16:05:49 16:10:23 41° 98° (E) 16:14:53 437.325
DX 1 25 Jun 16:13:58 16:16:25 15° 301° (WNW) 16:18:53 434.975-435.025
ISS 25 Jun 16:14:03 16:16:42 22° 221° (SW) 16:19:21 437.550
BEESAT 25 Jun 16:15:52 16:20:33 52° 100° (E) 16:25:12 436.000
UKube-1 25 Jun 16:31:34 16:33:51 14° 301° (WNW) 16:36:07 .
CUBESAT XI-V 25 Jun 16:31:45 16:32:24 10° 86° (E) 16:33:03 437.345
DOVE 4 25 Jun 16:44:09 16:46:23 14° 59° (ENE) 16:48:40 437.250
SO-50 25 Jun 16:46:35 16:50:33 29° 320° (NW) 16:54:31 436.795
ITAMSAT 1 25 Jun 17:00:54 17:05:02 24° 267° (W) 17:09:14 435.822/435.867
XW-2C 25 Jun 17:08:29 17:08:54 10° 59° (ENE) 17:09:19 145.795 - 145.815
AO-7 25 Jun 17:20:01 17:26:57 29° 267° (W) 17:33:58 .
KAITUO 1B 25 Jun 17:22:12 17:23:20 11° 60° (ENE) 17:24:27 145.475/437.950
KKS-1 25 Jun 17:23:35 17:27:10 23° 94° (E) 17:30:43 437.445
MOZHAYETS 4 25 Jun 17:25:24 17:29:51 49° 289° (WNW) 17:34:14
HO-68 25 Jun 17:41:03 17:45:31 18° 48° (NE) 17:49:59 435.675
ITUPSAT 1 25 Jun 17:44:01 17:48:01 27° 296° (WNW) 17:52:00 437.325
STARS 25 Jun 17:53:47 17:57:08 21° 93° (E) 18:00:27 437.465
BEESAT 25 Jun 17:54:21 17:57:59 22° 299° (WNW) 18:01:36 436.000
NUDT-PHONESAT 25 Jun 17:55:51 17:58:55 24° 67° (ENE) 18:01:59 437.300
CUTE-I 25 Jun 18:02:15 18:07:14 42° 67° (ENE) 18:12:15 437.470
CUBESAT XI-V 25 Jun 18:05:51 18:10:28 88° 112° (ESE) 18:15:04 437.345
XW-2F 25 Jun 18:10:26 18:14:04 43° 72° (ENE) 18:17:43 145.980 - 146.000
XW-2D 25 Jun 18:14:15 18:17:59 51° 73° (ENE) 18:21:44 145.860 - 145.880
DOVE 4 25 Jun 18:19:23 18:23:31 67° 258° (WSW) 18:27:51 437.250
LilacSat-2 25 Jun 18:22:19 18:26:09 66° 74° (ENE) 18:30:01 437.200
XW-2B 25 Jun 18:23:10 18:26:58 63° 74° (ENE) 18:30:47 145.730 - 145.750
SO-50 25 Jun 18:32:10 18:32:30 10° 344° (NNW) 18:32:50 436.795
XW-2C 25 Jun 18:38:36 18:42:28 84° 260° (W) 18:46:20 145.795 - 145.815
XW-2A 25 Jun 18:48:12 18:49:52 13° 63° (ENE) 18:51:32 145.665 - 145.685
KAITUO 1B 25 Jun 18:53:00 18:56:47 73° 259° (W) 19:00:34 145.475/437.950
SEEDS 25 Jun 18:55:19 18:58:06 17° 63° (ENE) 19:00:53 437.485
KKS-1 25 Jun 18:59:39 19:03:52 41° 291° (WNW) 19:08:04 437.445
CUTE 1.7 + AOD 2 25 Jun 19:11:21 19:15:14 36° 70° (ENE) 19:19:09 437.475
CUBEBUG 2 25 Jun 19:22:12 19:26:08 28° 66° (ENE) 19:30:10 437.445
HO-68 25 Jun 19:24:55 19:32:03 71° 69° (ENE) 19:39:14 435.675
PCSat 25 Jun 19:28:43 19:31:54 15° 29° (NNE) 19:35:05 145.827
NUDT-PHONESAT 25 Jun 19:29:26 19:32:42 28° 264° (W) 19:36:00 437.300
STARS 25 Jun 19:29:26 19:33:41 45° 291° (WNW) 19:37:55 437.465
CUTE-I 25 Jun 19:42:46 19:47:24 30° 265° (W) 19:52:05 437.470
CUBESAT XI-V 25 Jun 19:45:05 19:47:09 13° 302° (WNW) 19:49:13 437.345
Oscar 11 25 Jun 19:45:31 19:47:25 13° 59° (ENE) 19:49:18 .
AAUSAT CUBESAT 2 25 Jun 19:45:32 19:49:00 26° 67° (ENE) 19:52:27 437.432
XW-2F 25 Jun 19:45:58 19:48:25 16° 269° (W) 19:50:52 145.980 - 146.000
XW-2D 25 Jun 19:50:27 19:52:28 14° 270° (W) 19:54:30 145.860 - 145.880
ZACube-1 25 Jun 19:51:32 19:54:56 21° 63° (ENE) 19:58:21 437.345
UWE-3 25 Jun 19:55:35 19:59:48 36° 68° (ENE) 20:04:06 435.000/436.395/437.385
LilacSat-2 25 Jun 19:59:44 20:00:52 11° 272° (W) 20:02:00 437.200
XW-2B 25 Jun 20:00:16 20:01:34 11° 271° (W) 20:02:52 145.730 - 145.750
RS-15 25 Jun 20:01:10 20:09:44 23° 98° (E) 20:18:21 29.354- 29.394
STRAND 1 25 Jun 20:16:43 20:21:28 36° 97° (E) 20:26:11 437.568
XW-2A 25 Jun 20:18:53 20:22:13 48° 260° (W) 20:25:36 145.665 - 145.685
SEEDS 25 Jun 20:29:18 20:33:25 52° 261° (W) 20:37:32 437.485
YUBILEINY 25 Jun 20:37:53 20:41:02 12° 69° (ENE) 20:44:13 435.215
AO-85 25 Jun 20:42:01 20:45:07 21° 115° (ESE) 20:48:10 145.980
BEESAT 3 25 Jun 20:42:08 20:43:50 12° 110° (ESE) 20:45:34 437.485
CUTE 1.7 + AOD 2 25 Jun 20:47:46 20:51:11 23° 267° (W) 20:54:36 437.475
AO-73 25 Jun 20:51:11 20:55:42 67° 74° (ENE) 21:00:16 145.935
CUBEBUG 2 25 Jun 20:58:21 21:02:36 36° 264° (W) 21:07:00 437.445
PCSat 25 Jun 21:11:12 21:16:33 54° 51° (NE) 21:21:52 145.827
DELFI C3 25 Jun 21:12:01 21:15:08 23° 66° (ENE) 21:18:15 145.870
HO-68 25 Jun 21:14:39 21:20:23 25° 268° (W) 21:26:11 435.675
Oscar 11 25 Jun 21:18:33 21:22:54 83° 256° (WSW) 21:27:17 .
AAUSAT CUBESAT 2 25 Jun 21:20:42 21:24:21 30° 264° (W) 21:28:02 437.432
ZACube-1 25 Jun 21:26:26 21:30:51 50° 261° (W) 21:35:22 437.345
UWE-3 25 Jun 21:32:22 21:36:18 28° 266° (W) 21:40:19 435.000/436.395/437.385
BEESAT 2 25 Jun 21:40:02 21:42:47 18° 112° (ESE) 21:45:33 435.950
O/OREOS (USA 219) 25 Jun 21:42:06 21:45:55 27° 104° (ESE) 21:49:44 437.305
SO-50 25 Jun 21:54:03 21:57:27 20° 34° (NNE) 22:00:50 436.795
STRAND 1 25 Jun 21:55:59 22:00:36 34° 295° (WNW) 22:05:11 437.568
RS-15 25 Jun 22:08:02 22:20:13 79° 121° (ESE) 22:32:35 29.354- 29.394
EO-88 25 Jun 22:08:42 22:12:21 65° 74° (ENE) 22:16:01 145.990 - 145.960
NO-84 25 Jun 22:12:59 22:16:26 30° 132° (SE) 22:20:08 435.350 FM
BEESAT 3 25 Jun 22:16:51 22:20:50 76° 308° (NW) 22:24:53 437.485
UNISAT 6 25 Jun 22:17:10 22:20:13 17° 90° (E) 22:23:13 437.425
AO-85 25 Jun 22:21:26 22:25:16 43° 313° (NW) 22:29:02 145.980
FO-29 25 Jun 22:26:26 22:33:43 41° 94° (E) 22:40:57 435.910
YUBILEINY 25 Jun 22:27:15 22:35:51 61° 91° (E) 22:44:30 435.215
AO-73 25 Jun 22:29:50 22:32:24 15° 272° (W) 22:34:59 145.935
LO-87 25 Jun 22:32:17 22:34:43 18° 65° (ENE) 22:37:10 145.935 - 145.965
M-CUBED/EXP-1 PRIME 25 Jun 22:41:47 22:45:08 32° 104° (ESE) 22:48:42 437.505
DELFI C3 25 Jun 22:46:14 22:49:46 32° 264° (W) 22:53:19 145.870
PCSat 25 Jun 22:55:09 22:59:38 27° 251° (WSW) 23:04:05 145.827
PRISM 25 Jun 23:00:08 23:04:01 40° 99° (E) 23:07:53 437.425
TIGRISAT 25 Jun 23:10:29 23:15:04 51° 99° (E) 23:19:31 435.000
BEESAT 2 25 Jun 23:16:14 23:20:10 54° 311° (NW) 23:24:09 435.950
O/OREOS (USA 219) 25 Jun 23:20:58 23:25:11 37° 303° (WNW) 23:29:24 437.305
SO-50 25 Jun 23:33:55 23:38:28 83° 234° (SW) 23:43:01 436.795
ESTCUBE 1 25 Jun 23:38:43 23:43:09 63° 73° (ENE) 23:47:36 437.505/2401.250
VELOX 1 25 Jun 23:40:59 23:44:03 19° 62° (ENE) 23:47:07 145.980
EO-88 25 Jun 23:45:58 23:46:27 10° 272° (W) 23:46:55 145.990 - 145.960
NO-84 25 Jun 23:49:49 23:53:50 58° 332° (NNW) 23:58:06 435.350 FM
